Weather WX

World > North America > United States > Minnesota

Wasioja, Minnesota Regional Weather

Lat: 44.08N, Lon: 92.81W
Wx Zone: MNZ086
Feedback

Wasioja, MN Regional Weather

Expires:201906200600;;767942
ASUS43 KMPX 200510
RWRMN 
WEATHER ROUNDUP FOR MINNESOTA
NATIONAL WEATHER SERVICE TWIN CITIES/CHANHASSEN MN
1200 AM CDT THU JUN 20 2019


NOTE: "FAIR" INDICATES FEW OR NO CLOUDS BELOW 12,000 FEET WITH NO
SIGNIFICANT WEATHER AND/OR OBSTRUCTIONS TO VISIBILITY. N/A MEANS
CURRENT SKY AND/OR WEATHER CONDITIONS ARE NOT AVAILABLE.


MNZ078>079-086>088-094>096-200600-
   Southeast Minnesota   
  
CITY           SKY/WX    TMP DP  RH WIND       PRES   REMARKS
ROCHESTER      FAIR      62  53  72 NE5       29.75F                  
RED WING       FAIR      61  50  67 N3        29.74S                  
STANTON        FAIR      63  56  77 E3        29.74S                  
DODGE CENTER   FAIR      63  55  77 CALM      29.75F                  
WINONA         FAIR      63  57  82 CALM      29.74S                  
AUSTIN         FAIR      64  52  63 CALM      29.75F                  
PRESTON        FAIR      62  55  77 CALM      29.75F                  
$$
ABBREVIATIONS USED IN REMARKS
   TC - TEMPERATURES IN CELSIUS
  WCI - WIND CHILL INDEX
   HX - HEAT INDEX
  VSB - VISIBILITY 
$$
  

SKY/WX - Weather  TMP - Temperature  DP - Dew Point  RH - Relative Humidity
WIND - Wind Direction/Speed PRES - Barometric Pressure VSB - Visibility
WCI - Wind Chill Index E13G22 Wind - East Wind 13 mph/Gusts of 22 mph